owner,sensor,date,latitude,longitude,vertical_datum,mass_concentration_of_oxygen_in_sea_water,qcFlag 
SCCF RECON,ioos:station:SCCF:16:1,2011-10-01T00:00:00Z,26.4345,-81.9647,2.44,6.45,1111122 
SCCF RECON,ioos:station:SCCF:16:1,2011-10-01T01:00:00Z,26.4345,-81.9647,2.441,6.08,1111122 
SCCF RECON,ioos:station:SCCF:16:1,2011-10-01T02:00:00Z,26.4345,-81.9647,2.442,6.62,1111122 
SCCF RECON,ioos:station:SCCF:16:1,2011-10-01T03:00:00Z,26.4345,-81.9647,2.539,6.54,1111122 
SCCF RECON,ioos:station:SCCF:16:1,2011-10-01T04:00:00Z,26.4345,-81.9647,2.741,6.2,1111122 
SCCF RECON,ioos:station:SCCF:16:1,2011-10-01T05:00:00Z,26.4345,-81.9647,2.873,6.2,1111122 
SCCF RECON,ioos:station:SCCF:16:1,2011-10-01T06:00:00Z,26.4345,-81.9647,2.953,6.31,1111122 
SCCF RECON,ioos:station:SCCF:16:1,2011-10-01T07:00:00Z,26.4345,-81.9647,2.959,6.33,1111122 
SCCF RECON,ioos:station:SCCF:16:1,2011-10-01T08:00:00Z,26.4345,-81.9647,2.874,4.93,1111122 
SCCF RECON,ioos:station:SCCF:16:1,2011-10-01T09:00:00Z,26.4345,-81.9647,2.732,4.78,1111122 
SCCF RECON,ioos:station:SCCF:16:1,2011-10-01T10:00:00Z,26.4345,-81.9647,2.536,5.53,1111122 
SCCF RECON,ioos:station:SCCF:16:1,2011-10-01T11:00:00Z,26.4345,-81.9647,2.327,5.79,1111122 
SCCF RECON,ioos:station:SCCF:16:1,2011-10-01T12:00:00Z,26.4345,-81.9647,2.129,5.7,1111122 
SCCF RECON,ioos:station:SCCF:16:1,2011-10-01T13:00:00Z,26.4345,-81.9647,1.958,5.79,1111122 
SCCF RECON,ioos:station:SCCF:16:1,2011-10-01T14:00:00Z,26.4345,-81.9647,1.91,5.65,1111122 
SCCF RECON,ioos:station:SCCF:16:1,2011-10-01T15:00:00Z,26.4345,-81.9647,2.001,5.55,1111122 
SCCF RECON,ioos:station:SCCF:16:1,2011-10-01T16:00:00Z,26.4345,-81.9647,2.217,5.8,1111122 
SCCF RECON,ioos:station:SCCF:16:1,2011-10-01T17:00:00Z,26.4345,-81.9647,2.406,5.89,1111122 
SCCF RECON,ioos:station:SCCF:16:1,2011-10-01T18:00:00Z,26.4345,-81.9647,2.503,6.6,1111122 
SCCF RECON,ioos:station:SCCF:16:1,2011-10-01T19:00:00Z,26.4345,-81.9647,2.561,6.13,1111122 
SCCF RECON,ioos:station:SCCF:16:1,2011-10-01T20:00:00Z,26.4345,-81.9647,2.633,5.59,1111122 
SCCF RECON,ioos:station:SCCF:16:1,2011-10-01T21:00:00Z,26.4345,-81.9647,2.679,5.46,1111122 
SCCF RECON,ioos:station:SCCF:16:1,2011-10-01T22:00:00Z,26.4345,-81.9647,2.676,5.84,1111122 
SCCF RECON,ioos:station:SCCF:16:1,2011-10-01T23:00:00Z,26.4345,-81.9647,2.625,5.76,1111122 
SCCF RECON,ioos:station:SCCF:16:1,2011-10-02T00:00:00Z,26.4345,-81.9647,2.582,5.62,1111122 
SCCF RECON,ioos:station:SCCF:16:1,2011-10-02T01:00:00Z,26.4345,-81.9647,2.528,5.6,1111122 
SCCF RECON,ioos:station:SCCF:16:1,2011-10-02T02:00:00Z,26.4345,-81.9647,2.459,6.31,1111122 
SCCF RECON,ioos:station:SCCF:16:1,2011-10-02T03:00:00Z,26.4345,-81.9647,2.455,6.39,1111122 
SCCF RECON,ioos:station:SCCF:16:1,2011-10-02T04:00:00Z,26.4345,-81.9647,2.566,6.18,1111122 
SCCF RECON,ioos:station:SCCF:16:1,2011-10-02T05:00:00Z,26.4345,-81.9647,2.667,6.19,1111122 
SCCF RECON,ioos:station:SCCF:16:1,2011-10-02T06:00:00Z,26.4345,-81.9647,2.743,6.18,1111122 
SCCF RECON,ioos:station:SCCF:16:1,2011-10-02T07:00:00Z,26.4345,-81.9647,2.804,6.18,1111122 
SCCF RECON,ioos:station:SCCF:16:1,2011-10-02T08:00:00Z,26.4345,-81.9647,2.814,6.13,1111122 
SCCF RECON,ioos:station:SCCF:16:1,2011-10-02T09:00:00Z,26.4345,-81.9647,2.75,6.06,1111122 
SCCF RECON,ioos:station:SCCF:16:1,2011-10-02T10:00:00Z,26.4345,-81.9647,2.643,5.88,1111122 
SCCF RECON,ioos:station:SCCF:16:1,2011-10-02T11:00:00Z,26.4345,-81.9647,2.486,5.63,1111122 
SCCF RECON,ioos:station:SCCF:16:1,2011-10-02T12:00:00Z,26.4345,-81.9647,2.301,5.65,1111122 
SCCF RECON,ioos:station:SCCF:16:1,2011-10-02T13:00:00Z,26.4345,-81.9647,2.142,5.62,1111122 
SCCF RECON,ioos:station:SCCF:16:1,2011-10-02T14:00:00Z,26.4345,-81.9647,2.023,5.87,1111122 
SCCF RECON,ioos:station:SCCF:16:1,2011-10-02T15:00:00Z,26.4345,-81.9647,1.96,5.77,1111122 
SCCF RECON,ioos:station:SCCF:16:1,2011-10-02T16:00:00Z,26.4345,-81.9647,2.049,5.88,1111122 
SCCF RECON,ioos:station:SCCF:16:1,2011-10-02T17:00:00Z,26.4345,-81.9647,2.263,6.06,1111122 
SCCF RECON,ioos:station:SCCF:16:1,2011-10-02T18:00:00Z,26.4345,-81.9647,2.381,6.42,1111122 
SCCF RECON,ioos:station:SCCF:16:1,2011-10-02T19:00:00Z,26.4345,-81.9647,2.44,6.24,1111122 
SCCF RECON,ioos:station:SCCF:16:1,2011-10-02T20:00:00Z,26.4345,-81.9647,2.509,5.7,1111122 
SCCF RECON,ioos:station:SCCF:16:1,2011-10-02T21:00:00Z,26.4345,-81.9647,2.56,6.13,1111122 
SCCF RECON,ioos:station:SCCF:16:1,2011-10-02T22:00:00Z,26.4345,-81.9647,2.636,6.1,1111122 
SCCF RECON,ioos:station:SCCF:16:1,2011-10-02T23:00:00Z,26.4345,-81.9647,2.65,6.11,1111122 
SCCF RECON,ioos:station:SCCF:16:1,2011-10-03T00:00:00Z,26.4345,-81.9647,2.609,6.22,1111122 
SCCF RECON,ioos:station:SCCF:16:1,2011-10-03T01:00:00Z,26.4345,-81.9647,2.573,6.13,1111122 
SCCF RECON,ioos:station:SCCF:16:1,2011-10-03T02:00:00Z,26.4345,-81.9647,2.543,5.94,1111122 
SCCF RECON,ioos:station:SCCF:16:1,2011-10-03T03:00:00Z,26.4345,-81.9647,2.55,6.6,1111122 
SCCF RECON,ioos:station:SCCF:16:1,2011-10-03T04:00:00Z,26.4345,-81.9647,2.559,6.48,1111122 
SCCF RECON,ioos:station:SCCF:16:1,2011-10-03T05:00:00Z,26.4345,-81.9647,2.617,6.31,1111122 
SCCF RECON,ioos:station:SCCF:16:1,2011-10-03T06:00:00Z,26.4345,-81.9647,2.705,6.29,1111122 
SCCF RECON,ioos:station:SCCF:16:1,2011-10-03T07:00:00Z,26.4345,-81.9647,2.774,6.32,1111122 
SCCF RECON,ioos:station:SCCF:16:1,2011-10-03T08:00:00Z,26.4345,-81.9647,2.816,6.22,1111122 
SCCF RECON,ioos:station:SCCF:16:1,2011-10-03T09:00:00Z,26.4345,-81.9647,2.803,6.05,1111122 
SCCF RECON,ioos:station:SCCF:16:1,2011-10-03T10:00:00Z,26.4345,-81.9647,2.764,5.93,1111122 
SCCF RECON,ioos:station:SCCF:16:1,2011-10-03T11:00:00Z,26.4345,-81.9647,2.683,5.89,1111122 
SCCF RECON,ioos:station:SCCF:16:1,2011-10-03T12:00:00Z,26.4345,-81.9647,2.549,5.72,1111122 
SCCF RECON,ioos:station:SCCF:16:1,2011-10-03T13:00:00Z,26.4345,-81.9647,2.4,5.52,1111122 
SCCF RECON,ioos:station:SCCF:16:1,2011-10-03T14:00:00Z,26.4345,-81.9647,2.255,5.72,1111122 
SCCF RECON,ioos:station:SCCF:16:1,2011-10-03T15:00:00Z,26.4345,-81.9647,2.105,5.82,1111122 
SCCF RECON,ioos:station:SCCF:16:1,2011-10-03T16:00:00Z,26.4345,-81.9647,2.038,5.96,1111122 
SCCF RECON,ioos:station:SCCF:16:1,2011-10-03T17:00:00Z,26.4345,-81.9647,2.082,6.06,1111122 
SCCF RECON,ioos:station:SCCF:16:1,2011-10-03T18:00:00Z,26.4345,-81.9647,2.209,6.49,1111122 
SCCF RECON,ioos:station:SCCF:16:1,2011-10-03T19:00:00Z,26.4345,-81.9647,2.319,5.87,1111122 
SCCF RECON,ioos:station:SCCF:16:1,2011-10-03T20:00:00Z,26.4345,-81.9647,2.419,6.08,1111122 
SCCF RECON,ioos:station:SCCF:16:1,2011-10-03T21:00:00Z,26.4345,-81.9647,2.475,6.1,1111122 
SCCF RECON,ioos:station:SCCF:16:1,2011-10-03T22:00:00Z,26.4345,-81.9647,2.528,6.45,1111122 
SCCF RECON,ioos:station:SCCF:16:1,2011-10-03T23:00:00Z,26.4345,-81.9647,2.602,6.26,1111122 
SCCF RECON,ioos:station:SCCF:16:1,2011-10-04T00:00:00Z,26.4345,-81.9647,2.648,6.04,1111122 
SCCF RECON,ioos:station:SCCF:16:1,2011-10-04T01:00:00Z,26.4345,-81.9647,2.643,5.94,1111122 
SCCF RECON,ioos:station:SCCF:16:1,2011-10-04T02:00:00Z,26.4345,-81.9647,2.64,5.99,1111122 
SCCF RECON,ioos:station:SCCF:16:1,2011-10-04T03:00:00Z,26.4345,-81.9647,2.645,6.27,1111122 
SCCF RECON,ioos:station:SCCF:16:1,2011-10-04T04:00:00Z,26.4345,-81.9647,2.657,6.41,1111122 
SCCF RECON,ioos:station:SCCF:16:1,2011-10-04T05:00:00Z,26.4345,-81.9647,2.603,6.53,1111122 
SCCF RECON,ioos:station:SCCF:16:1,2011-10-04T06:00:00Z,26.4345,-81.9647,2.58,6.44,1111122 
SCCF RECON,ioos:station:SCCF:16:1,2011-10-04T07:00:00Z,26.4345,-81.9647,2.629,6.58,1111122 
SCCF RECON,ioos:station:SCCF:16:1,2011-10-04T08:00:00Z,26.4345,-81.9647,2.738,6.56,1111122 
SCCF RECON,ioos:station:SCCF:16:1,2011-10-04T09:00:00Z,26.4345,-81.9647,2.764,6.5,1111122 
SCCF RECON,ioos:station:SCCF:16:1,2011-10-04T10:00:00Z,26.4345,-81.9647,2.782,6.33,1111122 
SCCF RECON,ioos:station:SCCF:16:1,2011-10-04T11:00:00Z,26.4345,-81.9647,2.775,6.06,1111122 
SCCF RECON,ioos:station:SCCF:16:1,2011-10-04T12:00:00Z,26.4345,-81.9647,2.742,5.95,1111122 
SCCF RECON,ioos:station:SCCF:16:1,2011-10-04T13:00:00Z,26.4345,-81.9647,2.593,6.08,1111122 
SCCF RECON,ioos:station:SCCF:16:1,2011-10-04T14:00:00Z,26.4345,-81.9647,2.448,6.21,1111122 
SCCF RECON,ioos:station:SCCF:16:1,2011-10-04T15:00:00Z,26.4345,-81.9647,2.314,6.05,1111122 
SCCF RECON,ioos:station:SCCF:16:1,2011-10-04T16:00:00Z,26.4345,-81.9647,2.171,6.15,1111122 
SCCF RECON,ioos:station:SCCF:16:1,2011-10-04T17:00:00Z,26.4345,-81.9647,2.12,6.17,1111122 
SCCF RECON,ioos:station:SCCF:16:1,2011-10-04T18:00:00Z,26.4345,-81.9647,2.066,6.42,1111122 
SCCF RECON,ioos:station:SCCF:16:1,2011-10-04T19:00:00Z,26.4345,-81.9647,2.151,6.76,1111122 
SCCF RECON,ioos:station:SCCF:16:1,2011-10-04T20:00:00Z,26.4345,-81.9647,2.294,6.9,1111122 
SCCF RECON,ioos:station:SCCF:16:1,2011-10-04T21:00:00Z,26.4345,-81.9647,2.376,7.27,1111122 
SCCF RECON,ioos:station:SCCF:16:1,2011-10-04T22:00:00Z,26.4345,-81.9647,2.467,7.2,1111122 
SCCF RECON,ioos:station:SCCF:16:1,2011-10-04T23:00:00Z,26.4345,-81.9647,2.571,7.28,1111122 
SCCF RECON,ioos:station:SCCF:16:1,2011-10-05T00:00:00Z,26.4345,-81.9647,2.655,7.09,1111122 
SCCF RECON,ioos:station:SCCF:16:1,2011-10-05T01:00:00Z,26.4345,-81.9647,2.727,7.07,1111122 
SCCF RECON,ioos:station:SCCF:16:1,2011-10-05T02:00:00Z,26.4345,-81.9647,2.731,7.07,1111122 
SCCF RECON,ioos:station:SCCF:16:1,2011-10-05T03:00:00Z,26.4345,-81.9647,2.691,6.82,1111122 
SCCF RECON,ioos:station:SCCF:16:1,2011-10-05T04:00:00Z,26.4345,-81.9647,2.69,6.58,1111122 
SCCF RECON,ioos:station:SCCF:16:1,2011-10-05T05:00:00Z,26.4345,-81.9647,2.604,6.56,1111122 
SCCF RECON,ioos:station:SCCF:16:1,2011-10-05T06:00:00Z,26.4345,-81.9647,2.586,6.34,1111122 
SCCF RECON,ioos:station:SCCF:16:1,2011-10-05T07:00:00Z,26.4345,-81.9647,2.58,6.26,1111122 
SCCF RECON,ioos:station:SCCF:16:1,2011-10-05T08:00:00Z,26.4345,-81.9647,2.626,6.27,1111122 
SCCF RECON,ioos:station:SCCF:16:1,2011-10-05T09:00:00Z,26.4345,-81.9647,2.669,6.21,1111122 
SCCF RECON,ioos:station:SCCF:16:1,2011-10-05T10:00:00Z,26.4345,-81.9647,2.746,6.13,1111122 
SCCF RECON,ioos:station:SCCF:16:1,2011-10-05T11:00:00Z,26.4345,-81.9647,2.822,6.14,1111122 
SCCF RECON,ioos:station:SCCF:16:1,2011-10-05T12:00:00Z,26.4345,-81.9647,2.822,5.99,1111122 
SCCF RECON,ioos:station:SCCF:16:1,2011-10-05T13:00:00Z,26.4345,-81.9647,2.773,5.99,1111122 
SCCF RECON,ioos:station:SCCF:16:1,2011-10-05T14:00:00Z,26.4345,-81.9647,2.658,6.03,1111122 
SCCF RECON,ioos:station:SCCF:16:1,2011-10-05T15:00:00Z,26.4345,-81.9647,2.495,6.16,1111122 
SCCF RECON,ioos:station:SCCF:16:1,2011-10-05T16:00:00Z,26.4345,-81.9647,2.366,6.0,1111122 
SCCF RECON,ioos:station:SCCF:16:1,2011-10-05T17:00:00Z,26.4345,-81.9647,2.258,6.13,1111122 
SCCF RECON,ioos:station:SCCF:16:1,2011-10-05T18:00:00Z,26.4345,-81.9647,2.178,6.37,1111122 
SCCF RECON,ioos:station:SCCF:16:1,2011-10-05T19:00:00Z,26.4345,-81.9647,2.115,6.41,1111122 
SCCF RECON,ioos:station:SCCF:16:1,2011-10-05T20:00:00Z,26.4345,-81.9647,2.197,6.7,1111122 
SCCF RECON,ioos:station:SCCF:16:1,2011-10-05T21:00:00Z,26.4345,-81.9647,2.3,6.51,1111122 
SCCF RECON,ioos:station:SCCF:16:1,2011-10-05T22:00:00Z,26.4345,-81.9647,2.397,6.93,1111122 
SCCF RECON,ioos:station:SCCF:16:1,2011-10-05T23:00:00Z,26.4345,-81.9647,2.462,6.89,1111122 
SCCF RECON,ioos:station:SCCF:16:1,2011-10-06T00:00:00Z,26.4345,-81.9647,2.531,6.76,1111122 
SCCF RECON,ioos:station:SCCF:16:1,2011-10-06T01:00:00Z,26.4345,-81.9647,2.621,6.73,1111122 
SCCF RECON,ioos:station:SCCF:16:1,2011-10-06T02:00:00Z,26.4345,-81.9647,2.656,6.57,1111122 
SCCF RECON,ioos:station:SCCF:16:1,2011-10-06T03:00:00Z,26.4345,-81.9647,2.642,6.48,1111122 
SCCF RECON,ioos:station:SCCF:16:1,2011-10-06T04:00:00Z,26.4345,-81.9647,2.605,6.22,1111122 
SCCF RECON,ioos:station:SCCF:16:1,2011-10-06T05:00:00Z,26.4345,-81.9647,2.514,6.04,1111122 
SCCF RECON,ioos:station:SCCF:16:1,2011-10-06T06:00:00Z,26.4345,-81.9647,2.465,6.04,1111122 
SCCF RECON,ioos:station:SCCF:16:1,2011-10-06T07:00:00Z,26.4345,-81.9647,2.448,5.95,1111122 
SCCF RECON,ioos:station:SCCF:16:1,2011-10-06T08:00:00Z,26.4345,-81.9647,2.478,5.82,1111122 
SCCF RECON,ioos:station:SCCF:16:1,2011-10-06T09:00:00Z,26.4345,-81.9647,2.545,5.9,1111122 
SCCF RECON,ioos:station:SCCF:16:1,2011-10-06T10:00:00Z,26.4345,-81.9647,2.67,5.98,1111122 
SCCF RECON,ioos:station:SCCF:16:1,2011-10-06T11:00:00Z,26.4345,-81.9647,2.785,6.13,1111122 
SCCF RECON,ioos:station:SCCF:16:1,2011-10-06T12:00:00Z,26.4345,-81.9647,2.855,6.06,1111122 
SCCF RECON,ioos:station:SCCF:16:1,2011-10-06T13:00:00Z,26.4345,-81.9647,2.868,6.03,1111122 
SCCF RECON,ioos:station:SCCF:16:1,2011-10-06T14:00:00Z,26.4345,-81.9647,2.809,6.06,1111122 
SCCF RECON,ioos:station:SCCF:16:1,2011-10-06T15:00:00Z,26.4345,-81.9647,2.737,6.12,1111122 
SCCF RECON,ioos:station:SCCF:16:1,2011-10-06T16:00:00Z,26.4345,-81.9647,2.62,6.28,1111122 
SCCF RECON,ioos:station:SCCF:16:1,2011-10-06T17:00:00Z,26.4345,-81.9647,2.497,6.16,1111122 
SCCF RECON,ioos:station:SCCF:16:1,2011-10-06T18:00:00Z,26.4345,-81.9647,2.366,6.3,1111122 
SCCF RECON,ioos:station:SCCF:16:1,2011-10-06T19:00:00Z,26.4345,-81.9647,2.25,6.51,1111122 
SCCF RECON,ioos:station:SCCF:16:1,2011-10-06T20:00:00Z,26.4345,-81.9647,2.207,6.5,1111122 
SCCF RECON,ioos:station:SCCF:16:1,2011-10-06T21:00:00Z,26.4345,-81.9647,2.265,6.65,1111122 
SCCF RECON,ioos:station:SCCF:16:1,2011-10-06T22:00:00Z,26.4345,-81.9647,2.408,6.6,1111122 
SCCF RECON,ioos:station:SCCF:16:1,2011-10-06T23:00:00Z,26.4345,-81.9647,2.505,6.74,1111122 
SCCF RECON,ioos:station:SCCF:16:1,2011-10-07T00:00:00Z,26.4345,-81.9647,2.566,6.41,1111122 
SCCF RECON,ioos:station:SCCF:16:1,2011-10-07T01:00:00Z,26.4345,-81.9647,2.635,6.52,1111122 
SCCF RECON,ioos:station:SCCF:16:1,2011-10-07T02:00:00Z,26.4345,-81.9647,2.717,6.51,1111122 
SCCF RECON,ioos:station:SCCF:16:1,2011-10-07T03:00:00Z,26.4345,-81.9647,2.72,6.42,1111122 
SCCF RECON,ioos:station:SCCF:16:1,2011-10-07T04:00:00Z,26.4345,-81.9647,2.656,6.32,1111122 
SCCF RECON,ioos:station:SCCF:16:1,2011-10-07T05:00:00Z,26.4345,-81.9647,2.595,6.31,1111122 
SCCF RECON,ioos:station:SCCF:16:1,2011-10-07T06:00:00Z,26.4345,-81.9647,2.467,6.25,1111122 
SCCF RECON,ioos:station:SCCF:16:1,2011-10-07T07:00:00Z,26.4345,-81.9647,2.374,6.24,1111122 
SCCF RECON,ioos:station:SCCF:16:1,2011-10-07T08:00:00Z,26.4345,-81.9647,2.366,6.04,1111122 
SCCF RECON,ioos:station:SCCF:16:1,2011-10-07T09:00:00Z,26.4345,-81.9647,2.454,6.1,1111122 
SCCF RECON,ioos:station:SCCF:16:1,2011-10-07T10:00:00Z,26.4345,-81.9647,2.537,6.04,1111122 
SCCF RECON,ioos:station:SCCF:16:1,2011-10-07T11:00:00Z,26.4345,-81.9647,2.665,6.04,1111122 
SCCF RECON,ioos:station:SCCF:16:1,2011-10-07T12:00:00Z,26.4345,-81.9647,2.753,6.08,1111122 
SCCF RECON,ioos:station:SCCF:16:1,2011-10-07T13:00:00Z,26.4345,-81.9647,2.842,6.14,1111122 
SCCF RECON,ioos:station:SCCF:16:1,2011-10-07T14:00:00Z,26.4345,-81.9647,2.864,6.1,1111122 
SCCF RECON,ioos:station:SCCF:16:1,2011-10-07T15:00:00Z,26.4345,-81.9647,2.816,6.12,1111122 
SCCF RECON,ioos:station:SCCF:16:1,2011-10-07T16:00:00Z,26.4345,-81.9647,2.727,6.16,1111122 
SCCF RECON,ioos:station:SCCF:16:1,2011-10-07T17:00:00Z,26.4345,-81.9647,2.594,6.24,1111122 
SCCF RECON,ioos:station:SCCF:16:1,2011-10-07T18:00:00Z,26.4345,-81.9647,2.465,6.25,1111122 
SCCF RECON,ioos:station:SCCF:16:1,2011-10-07T19:00:00Z,26.4345,-81.9647,2.357,6.35,1111122 
SCCF RECON,ioos:station:SCCF:16:1,2011-10-07T20:00:00Z,26.4345,-81.9647,2.267,6.66,1111122 
SCCF RECON,ioos:station:SCCF:16:1,2011-10-07T21:00:00Z,26.4345,-81.9647,2.296,6.78,1111122 
SCCF RECON,ioos:station:SCCF:16:1,2011-10-07T22:00:00Z,26.4345,-81.9647,2.456,6.5,1111122 
SCCF RECON,ioos:station:SCCF:16:1,2011-10-07T23:00:00Z,26.4345,-81.9647,2.47,6.73,1111122 
SCCF RECON,ioos:station:SCCF:16:1,2011-10-08T00:00:00Z,26.4345,-81.9647,2.545,6.72,1111122 
SCCF RECON,ioos:station:SCCF:16:1,2011-10-08T01:00:00Z,26.4345,-81.9647,2.602,6.44,1111122 
SCCF RECON,ioos:station:SCCF:16:1,2011-10-08T02:00:00Z,26.4345,-81.9647,2.755,6.38,1111122 
SCCF RECON,ioos:station:SCCF:16:1,2011-10-08T03:00:00Z,26.4345,-81.9647,2.695,6.28,1111122 
SCCF RECON,ioos:station:SCCF:16:1,2011-10-08T04:00:00Z,26.4345,-81.9647,2.71,6.25,1111122 
SCCF RECON,ioos:station:SCCF:16:1,2011-10-08T05:00:00Z,26.4345,-81.9647,2.652,6.19,1111122 
SCCF RECON,ioos:station:SCCF:16:1,2011-10-08T06:00:00Z,26.4345,-81.9647,2.477,6.14,1111122 
SCCF RECON,ioos:station:SCCF:16:1,2011-10-08T07:00:00Z,26.4345,-81.9647,2.362,6.05,1111122 
SCCF RECON,ioos:station:SCCF:16:1,2011-10-08T08:00:00Z,26.4345,-81.9647,2.314,6.0,1111122 
SCCF RECON,ioos:station:SCCF:16:1,2011-10-08T09:00:00Z,26.4345,-81.9647,2.261,6.06,1111122 
SCCF RECON,ioos:station:SCCF:16:1,2011-10-08T10:00:00Z,26.4345,-81.9647,2.43,6.07,1111122 
SCCF RECON,ioos:station:SCCF:16:1,2011-10-08T11:00:00Z,26.4345,-81.9647,2.562,5.99,1111122 
SCCF RECON,ioos:station:SCCF:16:1,2011-10-08T12:00:00Z,26.4345,-81.9647,2.628,5.95,1111122 
SCCF RECON,ioos:station:SCCF:16:1,2011-10-08T13:00:00Z,26.4345,-81.9647,2.712,5.99,1111122 
SCCF RECON,ioos:station:SCCF:16:1,2011-10-08T14:00:00Z,26.4345,-81.9647,2.763,6.05,1111122 
SCCF RECON,ioos:station:SCCF:16:1,2011-10-08T15:00:00Z,26.4345,-81.9647,2.79,6.12,1111122 
SCCF RECON,ioos:station:SCCF:16:1,2011-10-08T16:00:00Z,26.4345,-81.9647,2.84,6.25,1111122 
SCCF RECON,ioos:station:SCCF:16:1,2011-10-08T17:00:00Z,26.4345,-81.9647,2.721,6.27,1111122 
SCCF RECON,ioos:station:SCCF:16:1,2011-10-08T18:00:00Z,26.4345,-81.9647,2.538,6.29,1111122 
SCCF RECON,ioos:station:SCCF:16:1,2011-10-08T19:00:00Z,26.4345,-81.9647,2.458,6.32,1111122 
SCCF RECON,ioos:station:SCCF:16:1,2011-10-08T20:00:00Z,26.4345,-81.9647,2.336,6.32,1111122 
SCCF RECON,ioos:station:SCCF:16:1,2011-10-08T21:00:00Z,26.4345,-81.9647,2.241,6.31,1111122 
SCCF RECON,ioos:station:SCCF:16:1,2011-10-08T22:00:00Z,26.4345,-81.9647,2.223,6.46,1111122 
SCCF RECON,ioos:station:SCCF:16:1,2011-10-08T23:00:00Z,26.4345,-81.9647,2.35,6.52,1111122 
SCCF RECON,ioos:station:SCCF:16:1,2011-10-09T00:00:00Z,26.4345,-81.9647,2.487,6.51,1111122 
SCCF RECON,ioos:station:SCCF:16:1,2011-10-09T01:00:00Z,26.4345,-81.9647,2.658,6.39,1111122 
SCCF RECON,ioos:station:SCCF:16:1,2011-10-09T02:00:00Z,26.4345,-81.9647,2.675,6.32,1111122 
SCCF RECON,ioos:station:SCCF:16:1,2011-10-09T03:00:00Z,26.4345,-81.9647,2.743,6.31,1111122 
SCCF RECON,ioos:station:SCCF:16:1,2011-10-09T04:00:00Z,26.4345,-81.9647,2.737,6.28,1111122 
SCCF RECON,ioos:station:SCCF:16:1,2011-10-09T05:00:00Z,26.4345,-81.9647,2.633,6.19,1111122 
SCCF RECON,ioos:station:SCCF:16:1,2011-10-09T06:00:00Z,26.4345,-81.9647,2.587,6.11,1111122 
SCCF RECON,ioos:station:SCCF:16:1,2011-10-09T07:00:00Z,26.4345,-81.9647,2.536,6.03,1111122 
SCCF RECON,ioos:station:SCCF:16:1,2011-10-09T08:00:00Z,26.4345,-81.9647,2.379,6.05,1111122 
SCCF RECON,ioos:station:SCCF:16:1,2011-10-09T09:00:00Z,26.4345,-81.9647,2.235,6.01,1111122 
SCCF RECON,ioos:station:SCCF:16:1,2011-10-09T10:00:00Z,26.4345,-81.9647,2.264,5.99,1111122 
SCCF RECON,ioos:station:SCCF:16:1,2011-10-09T11:00:00Z,26.4345,-81.9647,2.321,6.04,1111122 
SCCF RECON,ioos:station:SCCF:16:1,2011-10-09T12:00:00Z,26.4345,-81.9647,2.552,5.89,1111122 
SCCF RECON,ioos:station:SCCF:16:1,2011-10-09T13:00:00Z,26.4345,-81.9647,2.695,5.82,1111122 
SCCF RECON,ioos:station:SCCF:16:1,2011-10-09T14:00:00Z,26.4345,-81.9647,2.804,6.07,1111122 
SCCF RECON,ioos:station:SCCF:16:1,2011-10-09T15:00:00Z,26.4345,-81.9647,2.935,6.11,1111122 
SCCF RECON,ioos:station:SCCF:16:1,2011-10-09T16:00:00Z,26.4345,-81.9647,2.891,6.25,1111122 
SCCF RECON,ioos:station:SCCF:16:1,2011-10-09T17:00:00Z,26.4345,-81.9647,2.781,6.25,1111122 
SCCF RECON,ioos:station:SCCF:16:1,2011-10-09T18:00:00Z,26.4345,-81.9647,2.68,6.37,1111122 
SCCF RECON,ioos:station:SCCF:16:1,2011-10-09T19:00:00Z,26.4345,-81.9647,2.602,6.39,1111122 
SCCF RECON,ioos:station:SCCF:16:1,2011-10-09T20:00:00Z,26.4345,-81.9647,2.517,6.45,1111122 
SCCF RECON,ioos:station:SCCF:16:1,2011-10-09T21:00:00Z,26.4345,-81.9647,2.453,6.58,1111122 
SCCF RECON,ioos:station:SCCF:16:1,2011-10-09T22:00:00Z,26.4345,-81.9647,2.366,6.69,1111122 
SCCF RECON,ioos:station:SCCF:16:1,2011-10-09T23:00:00Z,26.4345,-81.9647,2.428,6.51,1111122 
SCCF RECON,ioos:station:SCCF:16:1,2011-10-10T00:00:00Z,26.4345,-81.9647,2.565,6.46,1111122 
SCCF RECON,ioos:station:SCCF:16:1,2011-10-10T01:00:00Z,26.4345,-81.9647,2.654,6.46,1111122 
SCCF RECON,ioos:station:SCCF:16:1,2011-10-10T02:00:00Z,26.4345,-81.9647,2.77,6.26,1111122 
SCCF RECON,ioos:station:SCCF:16:1,2011-10-10T03:00:00Z,26.4345,-81.9647,2.841,6.32,1111122 
SCCF RECON,ioos:station:SCCF:16:1,2011-10-10T04:00:00Z,26.4345,-81.9647,2.888,6.11,1111122 
SCCF RECON,ioos:station:SCCF:16:1,2011-10-10T05:00:00Z,26.4345,-81.9647,2.85,6.22,1111122 
SCCF RECON,ioos:station:SCCF:16:1,2011-10-10T06:00:00Z,26.4345,-81.9647,2.774,6.09,1111122 
SCCF RECON,ioos:station:SCCF:16:1,2011-10-10T07:00:00Z,26.4345,-81.9647,2.625,6.05,1111122 
SCCF RECON,ioos:station:SCCF:16:1,2011-10-10T08:00:00Z,26.4345,-81.9647,2.454,5.91,1111122 
SCCF RECON,ioos:station:SCCF:16:1,2011-10-10T09:00:00Z,26.4345,-81.9647,2.322,5.79,1111122 
SCCF RECON,ioos:station:SCCF:16:1,2011-10-10T10:00:00Z,26.4345,-81.9647,2.271,5.78,1111122 
SCCF RECON,ioos:station:SCCF:16:1,2011-10-10T11:00:00Z,26.4345,-81.9647,2.313,5.85,1111122 
SCCF RECON,ioos:station:SCCF:16:1,2011-10-10T12:00:00Z,26.4345,-81.9647,2.501,5.75,1111122 
SCCF RECON,ioos:station:SCCF:16:1,2011-10-10T13:00:00Z,26.4345,-81.9647,2.714,5.8,1111122 
SCCF RECON,ioos:station:SCCF:16:1,2011-10-10T14:00:00Z,26.4345,-81.9647,2.816,6.02,1111122 
SCCF RECON,ioos:station:SCCF:16:1,2011-10-10T15:00:00Z,26.4345,-81.9647,2.89,6.05,1111122 
SCCF RECON,ioos:station:SCCF:16:1,2011-10-10T16:00:00Z,26.4345,-81.9647,2.939,6.01,1111122 
SCCF RECON,ioos:station:SCCF:16:1,2011-10-10T17:00:00Z,26.4345,-81.9647,2.933,6.29,1111122 
SCCF RECON,ioos:station:SCCF:16:1,2011-10-10T18:00:00Z,26.4345,-81.9647,2.876,6.26,1111122 
SCCF RECON,ioos:station:SCCF:16:1,2011-10-10T19:00:00Z,26.4345,-81.9647,2.776,6.15,1111122 
SCCF RECON,ioos:station:SCCF:16:1,2011-10-10T20:00:00Z,26.4345,-81.9647,2.653,6.42,1111122 
SCCF RECON,ioos:station:SCCF:16:1,2011-10-10T21:00:00Z,26.4345,-81.9647,2.522,6.48,1111122 
SCCF RECON,ioos:station:SCCF:16:1,2011-10-10T22:00:00Z,26.4345,-81.9647,2.437,6.28,1111122 
SCCF RECON,ioos:station:SCCF:16:1,2011-10-10T23:00:00Z,26.4345,-81.9647,2.457,6.45,1111122 
SCCF RECON,ioos:station:SCCF:16:1,2011-10-11T00:00:00Z,26.4345,-81.9647,2.568,6.65,1111122 
SCCF RECON,ioos:station:SCCF:16:1,2011-10-11T01:00:00Z,26.4345,-81.9647,2.762,6.44,1111122 
SCCF RECON,ioos:station:SCCF:16:1,2011-10-11T02:00:00Z,26.4345,-81.9647,2.896,7.04,1111122 
SCCF RECON,ioos:station:SCCF:16:1,2011-10-11T03:00:00Z,26.4345,-81.9647,2.944,7.0,1111122 
SCCF RECON,ioos:station:SCCF:16:1,2011-10-11T04:00:00Z,26.4345,-81.9647,2.996,6.85,1111122 
SCCF RECON,ioos:station:SCCF:16:1,2011-10-11T05:00:00Z,26.4345,-81.9647,2.934,6.83,1111122 
SCCF RECON,ioos:station:SCCF:16:1,2011-10-11T06:00:00Z,26.4345,-81.9647,2.843,6.54,1111122 
SCCF RECON,ioos:station:SCCF:16:1,2011-10-11T07:00:00Z,26.4345,-81.9647,2.726,6.63,1111122 
SCCF RECON,ioos:station:SCCF:16:1,2011-10-11T08:00:00Z,26.4345,-81.9647,2.563,5.99,1111122 
SCCF RECON,ioos:station:SCCF:16:1,2011-10-11T09:00:00Z,26.4345,-81.9647,2.42,5.94,1111122 
SCCF RECON,ioos:station:SCCF:16:1,2011-10-11T10:00:00Z,26.4345,-81.9647,2.323,5.88,1111122 
SCCF RECON,ioos:station:SCCF:16:1,2011-10-11T11:00:00Z,26.4345,-81.9647,2.277,5.85,1111122 
SCCF RECON,ioos:station:SCCF:16:1,2011-10-11T12:00:00Z,26.4345,-81.9647,2.38,5.87,1111122 
SCCF RECON,ioos:station:SCCF:16:1,2011-10-11T13:00:00Z,26.4345,-81.9647,2.602,5.8,1111122 
SCCF RECON,ioos:station:SCCF:16:1,2011-10-11T14:00:00Z,26.4345,-81.9647,2.788,6.14,1111122 
SCCF RECON,ioos:station:SCCF:16:1,2011-10-11T15:00:00Z,26.4345,-81.9647,2.932,6.21,1111122 
SCCF RECON,ioos:station:SCCF:16:1,2011-10-11T16:00:00Z,26.4345,-81.9647,2.989,6.32,1111122 
SCCF RECON,ioos:station:SCCF:16:1,2011-10-11T17:00:00Z,26.4345,-81.9647,2.996,6.44,1111122 
SCCF RECON,ioos:station:SCCF:16:1,2011-10-11T18:00:00Z,26.4345,-81.9647,2.938,6.8,1111122 
SCCF RECON,ioos:station:SCCF:16:1,2011-10-11T19:00:00Z,26.4345,-81.9647,2.827,7.07,1111122 